Home   Weather   San Fernando   Past weeks

Flag for Trinidad and Tobago Past Weather in San Fernando, Trinidad and Tobago — Yesterday and Last 2 Weeks

Now
79 °F

Passing clouds.


Feels Like: 82 °F
Forecast: 79 / 89 °F
Wind: 8 mph from Southeast

Location: Piarco International Airport - Trinidad

Current Time: Apr 27, 2017 at 5:20:04 am

Latest Report: Apr 27, 2017 at 4:00 am


Visibility: N/A

Pressure: 29.86 "Hg

Humidity: 84%

Dew Point: 73 °F

Location of San FernandoLocation

Past Weather in San Fernando — Graph

°F

San Fernando Temperature Yesterday

Maximum temperature yesterday: 93 °F (at 11:00 am)
Minimum temperature yesterday: 77 °F (at 3:00 am)
Average temperature yesterday: 84 °F

High & Low Weather Summary for the Past Weeks

 TemperatureHumidityPressure
High95 °F (Apr 25, 1:00 pm)100% (Apr 18, 10:00 am)29.98 "Hg (Apr 18, 10:00 am)
Low70 °F (Apr 18, 10:00 am)41% (Apr 25, 1:00 pm)29.80 "Hg (Apr 12, 5:00 pm)
Average83 °F73%29.90 "Hg
* Reported Apr 12 4:00 am — Apr 27 4:00 am, San Fernando, Weather by CustomWeather, © 2017

Note: Actual official high and low records may vary slightly from our data, if they occured in-between our weather recording intervals... More about our weather records

Advertising

San Fernando Weather History for the Previous 24 Hours

Scroll right to see more
 ConditionsComfort  
Time TempWeatherWind HumidityBarometerVisibility
4:00 am
Thu, Apr 27
79 °FPassing clouds.8 mph84%29.86 "HgN/A
3:00 am79 °FPassing clouds.10 mph89%29.86 "HgN/A
2:00 am79 °FPassing clouds.10 mph89%29.89 "HgN/A
1:00 am79 °FPassing clouds.13 mph89%29.89 "HgN/A
12:00 am79 °FPassing clouds.8 mph89%29.92 "HgN/A
11:00 pm
Wed, Apr 26
81 °FPassing clouds.8 mph84%29.92 "HgN/A
10:00 pm81 °FPassing clouds.10 mph84%29.92 "HgN/A
9:00 pm81 °FClear.14 mph84%29.92 "HgN/A
8:00 pm81 °FPassing clouds.15 mph84%29.89 "HgN/A
7:00 pm82 °FPassing clouds.17 mph74%29.86 "Hg5 mi
6:00 pm84 °FPassing clouds.18 mph70%29.83 "Hg5 mi
5:00 pm90 °FPassing clouds.18 mph55%29.83 "Hg5 mi
4:00 pm90 °FPassing clouds.20 mph52%29.83 "Hg5 mi
3:00 pm91 °FScattered clouds.21 mph52%29.83 "HgN/A
2:00 pm91 °FScattered clouds.20 mph52%29.83 "Hg5 mi
1:00 pm91 °FScattered clouds.17 mph52%29.86 "Hg6 mi
12:00 pm91 °FScattered clouds.17 mph49%29.89 "Hg6 mi
11:00 am93 °FScattered clouds.15 mph49%29.92 "Hg6 mi
10:00 am90 °FScattered clouds.13 mph55%29.92 "HgN/A
9:00 am88 °FScattered clouds.15 mph59%29.92 "HgN/A
8:00 am84 °FPassing clouds.13 mph70%29.92 "Hg4 mi
7:00 am81 °FPassing clouds.7 mph79%29.89 "Hg4 mi
6:00 am77 °FPassing clouds.6 mph89%29.89 "Hg4 mi
5:00 am77 °FPassing clouds.6 mph89%29.86 "HgN/A
Weather by CustomWeather, © 2017

See weather overviewHow to use our weather pages